Terminal Aerodrome Forecast
Issued by NWS King Salmon, AK

Home | Current Version | Previous Version | Text Only | Print | Product List | Glossary On
Versions: 1 2 3 4 5 6 7 8 9 10 11 12 13 14 15 16 17 18 19 20 21 22 23 24 25 26 27 28 29 30
000
FTAK31 PANC 281146
TAFAKN
TAF
PAKN 281146Z 2812/0112 VRB06KT P6SM VCSH BKN030 OVC060
     FM281500 VRB04KT 5SM -RA BR BKN015 OVC030
     FM282200 30008G12KT P6SM SCT025 OVC040
     FM010300 01010KT P6SM SCT080=

USA.gov is the U.S. government's official web portal to all federal, state and local government web resources and services.